Погода в Хабезе

Россия / Карачаево-Черкесская Республика     44°02′35″N   41°45′59″E
темп.,
°C
ветер,
м/с
пор.,
м/с
влажн.,
%
обл.,
%
осадки,
мм/ч
давл.,
гПа
погр.,
м
2 марта, вт
вт200:00−4ююз3393100 0.0 102959
03:00−6ююз338380 0.0 102935
06:00−8ю34764 0.0 103047
09:00−5ю34752 0.0 1029131
12:000зюз11710 0.0 1027170
15:00+1с22800 0.0 1026432
18:00−3зсз00860 0.0 102621
21:00−4ю348517 0.0 102646
3 марта, ср
ср300:00−5ююз347568 0.0 102558
03:00−5ююз347372 0.0 102343
06:00−5ююз3473100 0.0 102151
09:00−2зюз2272100 0.1 102195
12:00+1с1167100 0.0 1020311
15:00−2сз61095100 1.6 1020766
18:00−3сз2697100 1.6 1022397
21:00−3з2598100 3.6 1026363
4 марта, чт
чт400:00−4з1297100 0.7 102795
03:00−5зюз1197100 0.9 102830
06:00−7ююз229189 0.1 102825
09:00−4ююз237745 0.1 1028113
12:00−1с12720 0.0 1026280
15:000ссв22710 0.0 1024416
18:00−4всв11810 0.0 102321
21:00−5ююв12820 0.0 102421
5 марта, пт
пт500:00−5ю23810 0.0 102323
03:00−5ю33690 0.0 102232
06:00−5ю34650 0.0 102138
09:00−1ю34650 0.0 102196
12:00+3ю11730 0.0 101985
15:00+4в01730 0.0 1019108
18:00+1ююв11590 0.0 101922
21:000ю34650 0.0 102140
6 марта, сб
сб600:00−1ю445828 0.0 102060
03:00−1ю455747 0.0 101958
06:00−1ю455536 0.0 101961
09:00+2ю465332 0.0 1018112
12:00+8ю345098 0.0 1015130
15:00+6юз225199 0.0 101422
18:00+3сз0158100 0.0 101422
21:00+2ю3463100 0.0 101544